• In Romania
  • List of Countries
  • For 7 days
  • Water Temperature
  • Satellite Maps
  • Weather Map
  • Weather Widgets
  • user-avatar
    Login

    Hourly Weather Koprivnica

    Today, 17 October, Tuesday

    Time Temperature Precipitation Wind Pressure Humidity
    00:00 +13°C° 0 mm 0 mps 757 mmHg 81%
    01:00 +13°C° 0 mm 0 mps 757 mmHg 83%
    02:00 +13°C° 0 mm 0 mps 757 mmHg 84%
    03:00 +12°C° 0 mm 0 mps 757 mmHg 85%
    04:00 +12°C° 0 mm 0 mps 756 mmHg 86%
    05:00 +12°C° 0 mm 0 mps 756 mmHg 86%
    06:00 +12°C° 0 mm 0 mps 756 mmHg 85%
    07:00 +12°C° 0 mm 0 mps 757 mmHg 79%
    08:00 +14°C° 0 mm 0 mps 757 mmHg 72%
    09:00 +16°C° 0 mm 0 mps 757 mmHg 65%
    10:00 +18°C° 0 mm 0 mps 757 mmHg 57%
    11:00 +22°C° 0 mm 1 mps 756 mmHg 54%
    12:00 +23°C° 0 mm 1 mps 756 mmHg 51%
    13:00 +24°C° 0 mm 1 mps 756 mmHg 47%
    14:00 +24°C° 0 mm 1 mps 755 mmHg 51%
    15:00 +23°C° 0 mm 1 mps 755 mmHg 55%
    16:00 +22°C° 0 mm 1 mps 754 mmHg 58%
    17:00 +21°C° 0 mm 1 mps 754 mmHg 63%
    18:00 +19°C° 0 mm 1 mps 754 mmHg 68%
    19:00 +15°C° 0 mm 0 mps 754 mmHg 73%
    20:00 +16°C° 0 mm 1 mps 754 mmHg 75%
    21:00 +15°C° 0 mm 1 mps 754 mmHg 76%
    22:00 +15°C° 0 mm 1 mps 753 mmHg 77%
    23:00 +15°C° 0 mm 1 mps 753 mmHg 78%

    Tomorrow, 18 October, Wednesday

    Time Temperature Precipitation Wind Pressure Humidity
    00:00 +15°C° 0 mm 1 mps 753 mmHg 80%
    01:00 +14°C° 0 mm 1 mps 753 mmHg 81%
    02:00 +14°C° 0 mm 1 mps 752 mmHg 82%
    03:00 +14°C° 0 mm 1 mps 752 mmHg 84%
    04:00 +14°C° 0 mm 1 mps 752 mmHg 85%
    05:00 +14°C° 0 mm 1 mps 751 mmHg 86%
    06:00 +13°C° 0 mm 1 mps 751 mmHg 87%
    07:00 +13°C° 0 mm 1 mps 751 mmHg 88%
    08:00 +15°C° 0 mm 1 mps 751 mmHg 78%
    09:00 +18°C° 0 mm 2 mps 751 mmHg 68%
    10:00 +20°C° 0 mm 2 mps 751 mmHg 59%
    11:00 +21°C° 0 mm 2 mps 751 mmHg 52%
    12:00 +22°C° 0 mm 3 mps 750 mmHg 45%
    13:00 +25°C° 0 mm 3 mps 750 mmHg 39%
    14:00 +24°C° 0 mm 3 mps 750 mmHg 43%
    15:00 +23°C° 0 mm 2 mps 749 mmHg 47%
    16:00 +21°C° 0 mm 2 mps 749 mmHg 50%
    17:00 +20°C° 0 mm 2 mps 749 mmHg 55%
    18:00 +18°C° 0 mm 2 mps 749 mmHg 59%
    19:00 +16°C° 0 mm 2 mps 749 mmHg 63%
    20:00 +16°C° 0 mm 2 mps 749 mmHg 65%
    21:00 +15°C° 0 mm 2 mps 749 mmHg 68%
    22:00 +14°C° 0 mm 2 mps 749 mmHg 70%
    23:00 +14°C° 0 mm 2 mps 749 mmHg 72%

    Day after tomorrow, 19 October, Thursday

    Time Temperature Precipitation Wind Pressure Humidity
    00:00 +13°C° 0 mm 2 mps 749 mmHg 74%
    01:00 +13°C° 0 mm 2 mps 749 mmHg 77%
    02:00 +12°C° 0 mm 2 mps 749 mmHg 78%
    03:00 +12°C° 0 mm 2 mps 749 mmHg 80%
    04:00 +12°C° 0 mm 2 mps 749 mmHg 81%
    05:00 +10°C° 0 mm 2 mps 749 mmHg 81%
    06:00 +10°C° 0 mm 2 mps 749 mmHg 82%
    07:00 +11°C° 0 mm 1 mps 749 mmHg 82%
    08:00 +14°C° 0 mm 2 mps 750 mmHg 73%
    09:00 +16°C° 0 mm 2 mps 750 mmHg 65%
    10:00 +18°C° 0 mm 2 mps 750 mmHg 56%
    11:00 +20°C° 0 mm 2 mps 750 mmHg 52%
    12:00 +21°C° 0 mm 2 mps 749 mmHg 48%
    13:00 +23°C° 0 mm 2 mps 749 mmHg 44%
    14:00 +23°C° 0 mm 2 mps 749 mmHg 48%
    15:00 +22°C° 0 mm 1 mps 749 mmHg 52%
    16:00 +21°C° 0 mm 1 mps 749 mmHg 56%
    17:00 +20°C° 0 mm 1 mps 749 mmHg 60%
    18:00 +18°C° 0 mm 1 mps 749 mmHg 64%
    19:00 +15°C° 0 mm 1 mps 749 mmHg 69%
    20:00 +15°C° 0 mm 1 mps 750 mmHg 70%
    21:00 +14°C° 0 mm 1 mps 750 mmHg 72%
    22:00 +14°C° 0 mm 1 mps 750 mmHg 74%
    23:00 +14°C° 0 mm 1 mps 750 mmHg 76%

    20 October, Friday

    Time Temperature Precipitation Wind Pressure Humidity
    00:00 +13°C° 0 mm 1 mps 750 mmHg 79%
    01:00 +13°C° 0 mm 1 mps 750 mmHg 81%
    02:00 +12°C° 0 mm 1 mps 750 mmHg 83%
    03:00 +12°C° 0 mm 1 mps 750 mmHg 85%
    04:00 +11°C° 0 mm 1 mps 750 mmHg 87%
    05:00 +11°C° 0 mm 1 mps 750 mmHg 87%
    06:00 +11°C° 0 mm 1 mps 751 mmHg 87%
    07:00 +11°C° 0 mm 1 mps 751 mmHg 87%
    08:00 +14°C° 0 mm 1 mps 751 mmHg 78%
    09:00 +16°C° 0 mm 1 mps 751 mmHg 69%
    10:00 +19°C° 0 mm 1 mps 751 mmHg 60%
    11:00 +20°C° 0 mm 1 mps 751 mmHg 56%
    12:00 +22°C° 0 mm 1 mps 751 mmHg 52%
    13:00 +23°C° 0 mm 1 mps 751 mmHg 48%
    14:00 +22°C° 0 mm 1 mps 751 mmHg 51%
    15:00 +22°C° 0 mm 1 mps 751 mmHg 54%
    16:00 +21°C° 0 mm 1 mps 751 mmHg 58%
    17:00 +19°C° 0 mm 1 mps 751 mmHg 63%
    18:00 +16°C° 0 mm 0 mps 751 mmHg 68%
    19:00 +14°C° 0 mm 0 mps 752 mmHg 73%
    20:00 +14°C° 0 mm 0 mps 752 mmHg 74%
    21:00 +13°C° 0 mm 0 mps 752 mmHg 76%
    22:00 +14°C° 0 mm 1 mps 752 mmHg 78%
    23:00 +13°C° 0 mm 1 mps 752 mmHg 80%

    21 October, Saturday

    Time Temperature Precipitation Wind Pressure Humidity
    00:00 +13°C° 0 mm 1 mps 752 mmHg 82%
    01:00 +13°C° 0 mm 1 mps 752 mmHg 84%
    02:00 +12°C° 0 mm 1 mps 752 mmHg 85%
    03:00 +12°C° 0 mm 1 mps 752 mmHg 87%
    04:00 +11°C° 0 mm 1 mps 752 mmHg 89%
    05:00 +11°C° 0 mm 1 mps 752 mmHg 89%
    06:00 +11°C° 0 mm 1 mps 752 mmHg 90%
    07:00 +11°C° 0 mm 1 mps 752 mmHg 90%
    08:00 +14°C° 0 mm 1 mps 752 mmHg 81%
    09:00 +16°C° 0 mm 1 mps 752 mmHg 72%
    10:00 +19°C° 0 mm 1 mps 752 mmHg 63%
    11:00 +19°C° 0 mm 2 mps 752 mmHg 58%
    12:00 +20°C° 0 mm 2 mps 751 mmHg 53%
    13:00 +23°C° 0 mm 2 mps 751 mmHg 48%
    14:00 +21°C° 0 mm 2 mps 750 mmHg 51%
    15:00 +21°C° 0 mm 1 mps 750 mmHg 55%
    16:00 +21°C° 0 mm 1 mps 750 mmHg 58%
    17:00 +19°C° 0 mm 1 mps 750 mmHg 62%
    18:00 +16°C° 0 mm 1 mps 750 mmHg 67%
    19:00 +15°C° 0 mm 1 mps 750 mmHg 71%
    20:00 +14°C° 0 mm 1 mps 751 mmHg 73%
    21:00 +14°C° 0 mm 1 mps 751 mmHg 74%
    22:00 +13°C° 0 mm 1 mps 751 mmHg 75%
    23:00 +13°C° 0 mm 1 mps 751 mmHg 78%

    22 October, Sunday

    Time Temperature Precipitation Wind Pressure Humidity
    00:00 +13°C° 0 mm 1 mps 751 mmHg 80%
    01:00 +12°C° 0 mm 1 mps 750 mmHg 83%
    02:00 +12°C° 0 mm 1 mps 750 mmHg 85%
    03:00 +12°C° 0 mm 1 mps 750 mmHg 86%
    04:00 +11°C° 0 mm 1 mps 750 mmHg 88%
    05:00 +11°C° 0 mm 1 mps 750 mmHg 89%
    06:00 +11°C° 0 mm 1 mps 750 mmHg 89%
    07:00 +12°C° 0 mm 1 mps 750 mmHg 89%
    08:00 +13°C° 0 mm 1 mps 750 mmHg 81%
    09:00 +15°C° 0 mm 1 mps 749 mmHg 73%
    10:00 +18°C° 0 mm 1 mps 749 mmHg 66%
    11:00 +19°C° 0 mm 1 mps 749 mmHg 62%
    12:00 +20°C° 0 mm 1 mps 748 mmHg 59%
    13:00 +21°C° 0 mm 1 mps 748 mmHg 55%
    14:00 +20°C° 0.1 mm 1 mps 748 mmHg 60%
    15:00 +20°C° 0.1 mm 1 mps 747 mmHg 65%
    16:00 +19°C° 0.1 mm 1 mps 747 mmHg 70%
    17:00 +16°C° 1.2 mm 2 mps 748 mmHg 75%
    18:00 +14°C° 1.2 mm 4 mps 748 mmHg 79%
    19:00 +12°C° 1.2 mm 5 mps 748 mmHg 83%
    20:00 +12°C° 1.9 mm 5 mps 749 mmHg 84%
    21:00 +10°C° 1.9 mm 5 mps 749 mmHg 84%
    22:00 +9°C° 1.9 mm 5 mps 750 mmHg 85%
    23:00 +9°C° 0.8 mm 5 mps 750 mmHg 85%
    Show more